{"data":{"norad_id":54752,"epoch":"2026-05-25T05:50:04.278048Z","epoch_age_seconds":68131,"freshness":"FRESH","line1":"1 54752U 22172A   26145.24310507  .00006713  00000+0  23755-3 0  9998","line2":"2 54752  35.9793 215.3869 0019322  46.7347 313.4996 15.28462215192174","mean_motion":15.28462215,"eccentricity":0.0019322,"inclination_deg":35.9793,"raan_deg":215.3869,"arg_perigee_deg":46.7347,"mean_anomaly_deg":313.4996,"bstar":0.00023755,"rev_number":19217,"period_min":94.212338772143,"perigee_km":467.1566156625,"apogee_km":493.66077965653,"semimajor_km":6858.5456976595,"source":"CELESTRAK","updated_at":"2026-05-25T13:37:58.733267Z"}}